Location: Allos
(44.2333°N, 6.6333°E)
Time: 23:08:20
(UTC+00:00)

Cosmos 1821 Rocket - Pass Details

Date: 16 April 2021
Orbit: 946 x 1003 km, 82.9° (Epoch: 16 May)

Event Time Altitude Azimuth Distance (km) Brightness Sun altitude
Rises 00:54:09 0° 2° (N) 3,691 8.0 -32.6°
Reaches altitude 10° 00:57:18 10° 17° (NNE) 2,749 7.2 -32.4°
Maximum altitude 01:02:07 22° 68° (ENE) 2,002 6.0 -32.0°
Drops below altitude 10° 01:06:56 10° 118° (ESE) 2,762 6.3 -31.6°
Enters shadow 01:07:26 - 120° (ESE) 2,899 6.4 -31.6°
